Location: Cedar Springs
(43.2230°N, 85.5510°W)
Time: 01:50:26
(UTC-04:00)

Cosmos 2278 Rocket - Visible Passes

Search period start: 01 April 2015 00:00
Search period end: 11 April 2015 00:00
Orbit: 839 x 847 km, 71.0° (Epoch: 30 March)

Date Brightness Start Highest point End Pass type
(mag) Time Alt. Az. Time Alt. Az. Time Alt. Az.
01 Apr 4.3 02:37:25 22° NNE 02:37:25 22° NNE 02:39:23 10° NNE visible
01 Apr 4.5 04:19:15 12° NW 04:19:15 12° NW 04:21:16 10° NNW visible
02 Apr 4.4 02:23:01 21° NNE 02:23:01 21° NNE 02:24:54 10° NNE visible
02 Apr 4.5 04:04:50 13° NW 04:04:50 13° NW 04:06:55 10° NNW visible
03 Apr 4.4 02:08:35 21° NNE 02:08:35 21° NNE 02:10:24 10° NNE visible
03 Apr 4.5 03:50:24 13° NW 03:50:24 13° NW 03:52:32 10° NNW visible
04 Apr 4.4 01:54:07 21° NNE 01:54:07 21° NNE 01:55:54 10° NNE visible
04 Apr 4.6 03:35:56 13° NW 03:35:56 13° NW 03:38:09 10° NNW visible
05 Apr 4.4 01:39:37 21° NNE 01:39:37 21° NNE 01:41:24 10° NNE visible
05 Apr 4.6 03:21:26 14° NW 03:21:26 14° NW 03:23:45 10° NNW visible
06 Apr 4.3 01:25:05 21° NNE 01:25:05 21° NNE 01:26:55 10° NNE visible
06 Apr 4.6 03:06:54 14° NW 03:06:54 14° NW 03:09:21 10° N visible
07 Apr 4.3 01:10:31 22° NNE 01:10:31 22° NNE 01:12:25 10° NNE visible
07 Apr 4.6 02:52:20 15° NW 02:52:20 15° NW 02:54:56 10° N visible
08 Apr 4.2 00:55:54 23° NNE 00:55:54 23° NNE 00:57:54 10° NNE visible
08 Apr 4.5 02:37:42 15° NW 02:37:42 15° NW 02:40:31 10° N visible
09 Apr 4.1 00:41:14 24° NNE 00:41:14 24° NNE 00:43:24 10° NNE visible
09 Apr 4.5 02:23:02 16° NW 02:23:02 16° NW 02:26:05 10° N visible
10 Apr 3.9 00:26:29 26° NNE 00:26:29 26° NNE 00:28:54 10° NNE visible
10 Apr 4.5 02:08:18 16° NW 02:08:18 16° NW 02:11:39 10° N visible
